Location: Newark
(49.8969°N, 3.3422°E)
Time: 06:48:12
(UTC+00:00)

Tiros 1 - Pass Details

Date: 25 January 2021
Orbit: 630 x 664 km, 48.4° (Epoch: 06 March)

Event Time Altitude Azimuth Distance (km) Brightness Sun altitude
Rises 18:19:05 0° 242° (WSW) 2,926 11.9 -17.4°
Reaches altitude 10° 18:21:27 10° 237° (WSW) 2,015 10.7 -17.8°
Maximum altitude 18:25:57 53° 161° (SSE) 778 7.4 -18.5°
Enters shadow 18:27:22 38° 109° (ESE) 973 7.6 -18.7°
